Flag for U.S.A. Weather past 2 weeks in Unalaska, Alaska, U.S.A.

Now
43 °F

Cloudy.


Feels Like: 43 °F
Forecast: 38 / 44 °F
Wind: No wind

Location: Dutch Harbor

Current Time: Feb 27, 2015 at 1:55:37 PM

Latest Report: Feb 27, 2015 at 12:56 PM


Visibility: 10 mi

Pressure: 30.09 "Hg

Humidity: 79%

Dew point: 37 °F

Location of UnalaskaLocation

Historic Weather in Unalaska — Graph

°F

Unalaska temperature yesterday

Maximum temperature yesterday: 40 °F (at 2:56 PM)
Minimum temperature yesterday: 35 °F (at 12:56 AM)
Average temperature yesterday: 38 °F

Past Weeks' High & Low Weather Summary

 TemperatureHumidityPressure
High46 °F (Feb 19, 1:56 PM)97% (Feb 20, 11:56 PM)30.53 "Hg (Feb 20, 11:56 PM)
Low30 °F (Feb 24, 12:56 AM)50% (Feb 24, 10:56 PM)28.80 "Hg (Feb 16, 6:56 AM)
Average38 °F78%29.67 "Hg
* Reported Feb 12 12:56 PM — Feb 27 12:56 PM, Unalaska, Weather by CustomWeather, © 2015

Note: Actual official high and low records may vary slightly from our data, if they occured in-between our weather recording intervals... More about our weather records

Advertising

Unalaska weather history for previous 24 hours

 ConditionsComfort  
Time TempWeatherWind HumidityBarometerVisibility
12:56 PM
Fri, Feb 27
43 °FCloudy.No wind79%30.09 "Hg10 mi
11:56 AM43 °FMore clouds than sun.6 mph79%30.08 "Hg10 mi
10:56 AM41 °FCloudy.No wind86%30.08 "Hg10 mi
9:56 AM41 °FLight rain. Cloudy.8 mph86%30.09 "Hg7 mi
8:56 AM41 °FLight rain. Fog.9 mph86%30.08 "Hg6 mi
7:58 AM41 °FOvercast.13 mph81%30.05 "Hg10 mi
6:56 AM41 °FMostly cloudy.12 mph86%30.08 "Hg10 mi
5:56 AM41 °FMostly cloudy.9 mph86%30.09 "Hg10 mi
4:56 AM41 °FMostly cloudy.10 mph82%30.10 "Hg10 mi
3:56 AM41 °FOvercast.16 mph82%30.12 "Hg10 mi
2:56 AM41 °FMostly cloudy.13 mph82%30.14 "Hg10 mi
1:56 AM40 °FOvercast.13 mph86%30.17 "Hg10 mi
12:56 AM40 °FMostly cloudy.15 mph86%30.20 "Hg10 mi
11:56 PM
Thu, Feb 26
40 °FMostly cloudy.15 mph80%30.22 "Hg10 mi
10:56 PM40 °FMostly cloudy.18 mph80%30.24 "Hg10 mi
9:56 PM39 °FMostly cloudy.17 mph82%30.26 "Hg10 mi
8:56 PM39 °FLight rain. Mostly cloudy.18 mph82%30.28 "Hg10 mi
7:56 PM39 °FLight rain. Partly cloudy.18 mph79%30.29 "Hg10 mi
6:56 PM40 °FLight rain. Broken clouds.16 mph77%30.30 "Hg10 mi
5:56 PM40 °FLight rain. Broken clouds.14 mph77%30.33 "Hg10 mi
4:56 PM40 °FPartly sunny.10 mph73%30.35 "Hg10 mi
3:56 PM40 °FLight rain. Partly sunny.14 mph70%30.38 "Hg10 mi
2:56 PM40 °FBroken clouds.10 mph70%30.41 "Hg10 mi
1:56 PM38 °FLight rain. Broken clouds.13 mph73%30.44 "Hg10 mi
Weather by CustomWeather, © 2015

See weather overviewHow to use our weather pages